Bandera, Texas, United States (78003)
Lat: 29.73N, Lon: 99.07W
Wx Zone: TXZ187
Local Info
Past Weather Observations for Yesterday

NOTE: This archive is for the closest National Weather Service station to Bandera. Information may differ from the station used for current weather conditions.

Time Weather Temperature Dewpoint Humidity Pressure Winds Precip Visibility
23:51
Clear
72°F / 22°C 61°F / 16°C 69% 29.8 in
(1009 mb)
SE 8.1 mph
(SE 13 kph)
- 10SM
22:51
Clear
73°F / 23°C 61°F / 16°C 65% 29.8 in
(1009 mb)
SSE 18.4 mph
(SSE 30 kph)
- 10SM
21:51
Clear
75°F / 24°C 61°F / 16°C 61% 29.77 in
(1008 mb)
SE 23 mph
(SE 37 kph)
- 10SM
20:51
Clear
81°F / 27°C 61°F / 16°C 51% 29.77 in
(1008 mb)
SE 27.6 mph
(SE 44 kph)
- 10SM
19:51
Partly Cloudy
82°F / 28°C 61°F / 16°C 48% 29.83 in
(1010 mb)
SSE 18.4 mph
(SSE 30 kph)
- 10SM
18:51
Clear
84°F / 29°C 61°F / 16°C 45% 29.77 in
(1008 mb)
SSE 16.1 mph
(SSE 26 kph)
- 10SM
17:51
Partly Cloudy
88°F / 31°C 61°F / 16°C 40% 29.74 in
(1007 mb)
SSE 15 mph
(SSE 24 kph)
- 10SM
16:51
Clear
91°F / 33°C 61°F / 16°C 36% 29.74 in
(1007 mb)
SSE 17.3 mph
(SSE 28 kph)
- 10SM
15:51
Clear
91°F / 33°C 61°F / 16°C 36% 29.77 in
(1008 mb)
SSE 13.8 mph
(SSE 22 kph)
- 10SM
14:51
Partly Cloudy
91°F / 33°C 61°F / 16°C 36% 29.8 in
(1009 mb)
SSE 19.6 mph
(SSE 32 kph)
- 10SM
13:51
Partly Cloudy
91°F / 33°C 63°F / 17°C 38% 29.83 in
(1010 mb)
SE 16.1 mph
(SE 26 kph)
- 10SM
12:51
Clear
90°F / 32°C 63°F / 17°C 41% 29.89 in
(1012 mb)
SSE 16.1 mph
(SSE 26 kph)
- 10SM
11:51
Clear
88°F / 31°C 63°F / 17°C 43% 29.92 in
(1013 mb)
SSE 15 mph
(SSE 24 kph)
- 10SM
10:51
Clear
86°F / 30°C 64°F / 18°C 49% 29.92 in
(1013 mb)
SSE 13.8 mph
(SSE 22 kph)
- 10SM
09:51
Clear
82°F / 28°C 64°F / 18°C 55% 29.95 in
(1014 mb)
SSE 12.7 mph
(SSE 20 kph)
- 10SM
08:51
Clear
79°F / 26°C 64°F / 18°C 61% 29.95 in
(1014 mb)
SSE 13.8 mph
(SSE 22 kph)
- 10SM
07:51
Clear
72°F / 22°C 64°F / 18°C 78% 29.95 in
(1014 mb)
SE 6.9 mph
(SE 11 kph)
- 10SM
06:51
Clear
70°F / 21°C 63°F / 17°C 78% 29.95 in
(1014 mb)
E 5.8 mph
(E 9 kph)
- 10SM
05:51
Clear
66°F / 19°C 61°F / 16°C 83% 29.95 in
(1014 mb)
E 4.6 mph
(E 7 kph)
- 10SM
04:51
Partly Cloudy
68°F / 20°C 63°F / 17°C 83% 29.95 in
(1014 mb)
E 4.6 mph
(E 7 kph)
- 10SM
03:51
Overcast
70°F / 21°C 63°F / 17°C 78% 29.95 in
(1014 mb)
NE 3.5 mph
(NE 6 kph)
- 10SM
02:51
Partly Cloudy
70°F / 21°C 63°F / 17°C 78% 29.92 in
(1013 mb)
E 5.8 mph
(E 9 kph)
- 10SM
01:51
Partly Cloudy
70°F / 21°C 61°F / 16°C 73% 29.95 in
(1014 mb)
ESE 5.8 mph
(ESE 9 kph)
- 10SM
00:51
Clear
72°F / 22°C 59°F / 15°C 65% 29.95 in
(1014 mb)
E 5.8 mph
(E 9 kph)
- 10SM
Time Weather Temperature Dewpoint Humidity Pressure Winds Precip Visibility


Weather for websites

WeatherForYou.com, LLC is not responsible for any damages or problems caused by this service. Current weather conditions are obtained from the closest station including government and personal stations which may have varying degrees of accuracy. Weather forecasts are derived from the NOAA NDFD. Like all things, this site belongs to Jesus Christ... He just trusts me to maintain it. If you have any questions or comments email webmaster@weatherforyou.com

Copyright © 2014, WeatherForYou.com LLC. All rights reserved.